Terminal Aerodrome Forecast
Issued by NWS Boise, ID

Home | Current Version | Previous Version | Text Only | Print | Product List | Glossary On
Versions: 1 2 3 4 5 6 7 8 9 10 11 12
000
FTUS45 KBOI 192320
TAFBNO
TAF
KBNO 192320Z 2000/2024 29011KT P6SM SKC
     FM200200 28008KT P6SM SKC
     FM201300 30004KT P6SM SKC
     FM202000 22007KT P6SM SKC=

USA.gov is the U.S. government's official web portal to all federal, state and local government web resources and services.